Time,TemperatureF,DewpointF,PressureIn,WindDirection,WindDirectionDegrees,WindSpeedMPH,WindSpeedGustMPH,Humidity,HourlyPrecipIn,Conditions,Clouds,dailyrainin,SoftwareType,DateUTC
2013-01-17 00:02:00,8.0,5.0,-100.00,East,82,1.0,2.0,87,0.00,,,-99.99,,2013-01-17 07:02:00,
2013-01-17 00:12:00,8.0,5.0,-100.00,North,360,1.0,2.0,87,0.00,,,-99.99,,2013-01-17 07:12:00,
2013-01-17 00:22:00,8.0,5.0,-100.00,North,352,1.0,3.0,87,0.00,,,-99.99,,2013-01-17 07:22:00,
2013-01-17 00:32:00,5.0,3.0,-100.00,North,360,2.0,3.0,88,0.00,,,-99.99,,2013-01-17 07:32:00,
2013-01-17 00:42:00,6.0,4.0,-100.00,NNW,330,1.0,4.0,89,0.00,,,-99.99,,2013-01-17 07:42:00,
2013-01-17 00:52:00,8.0,6.0,-100.00,North,10,1.0,2.0,90,0.00,,,-99.99,,2013-01-17 07:52:00,
2013-01-17 01:02:00,9.0,5.0,-100.00,NNW,343,1.0,3.0,84,0.00,,,-99.99,,2013-01-17 08:02:00,
2013-01-17 01:12:00,9.0,6.0,-100.00,WNW,299,1.0,3.0,86,0.00,,,-99.99,,2013-01-17 08:12:00,
2013-01-17 01:22:00,10.0,6.0,-100.00,WNW,301,2.0,4.0,83,0.00,,,-99.99,,2013-01-17 08:22:00,
2013-01-17 01:32:00,9.0,5.0,-100.00,NW,313,1.0,4.0,82,0.00,,,-99.99,,2013-01-17 08:32:00,
2013-01-17 01:43:00,9.0,5.0,-100.00,NW,315,1.0,2.0,83,0.00,,,-99.99,,2013-01-17 08:43:00,
2013-01-17 01:52:00,7.0,3.0,-100.00,NE,35,1.0,1.0,83,0.00,,,-99.99,,2013-01-17 08:52:00,
2013-01-17 02:02:00,7.0,3.0,-100.00,NE,48,1.0,2.0,85,0.00,,,-99.99,,2013-01-17 09:02:00,
2013-01-17 02:12:00,6.0,3.0,-100.00,NE,42,1.0,2.0,86,0.00,,,-99.99,,2013-01-17 09:12:00,
2013-01-17 02:22:00,9.0,5.0,-100.00,NNW,329,2.0,3.0,85,0.00,,,-99.99,,2013-01-17 09:22:00,
2013-01-17 02:32:00,9.0,5.0,-100.00,WNW,282,2.0,4.0,85,0.00,,,-99.99,,2013-01-17 09:32:00,
2013-01-17 02:42:00,10.0,5.0,-100.00,West,268,2.0,4.0,81,0.00,,,-99.99,,2013-01-17 09:42:00,
2013-01-17 02:52:00,9.0,4.0,-100.00,WNW,294,3.0,4.0,80,0.00,,,-99.99,,2013-01-17 09:52:00,
2013-01-17 03:02:00,8.0,2.0,-100.00,NW,305,3.0,4.0,78,0.00,,,-99.99,,2013-01-17 10:02:00,
2013-01-17 03:12:00,8.0,4.0,-100.00,WNW,291,3.0,5.0,85,0.00,,,-99.99,,2013-01-17 10:12:00,
2013-01-17 03:22:00,9.0,5.0,-100.00,WNW,284,4.0,6.0,84,0.00,,,-99.99,,2013-01-17 10:22:00,
2013-01-17 03:32:00,10.0,5.0,-100.00,WNW,284,4.0,7.0,80,0.00,,,-99.99,,2013-01-17 10:32:00,
2013-01-17 03:42:00,11.0,5.0,-100.00,West,281,4.0,7.0,76,0.00,,,-99.99,,2013-01-17 10:42:00,
2013-01-17 03:52:00,10.0,5.0,-100.00,WNW,302,6.0,8.0,81,0.00,,,-99.99,,2013-01-17 10:52:00,
2013-01-17 04:02:00,9.0,3.0,-100.00,NW,315,7.0,9.0,78,0.00,,,-99.99,,2013-01-17 11:02:00,
2013-01-17 04:12:00,8.0,4.0,-100.00,NW,306,6.0,9.0,81,0.00,,,-99.99,,2013-01-17 11:12:00,
2013-01-17 04:22:00,9.0,4.0,-100.00,WNW,284,4.0,7.0,79,0.00,,,-99.99,,2013-01-17 11:22:00,
2013-01-17 04:33:00,8.0,2.0,-100.00,WNW,295,3.0,6.0,80,0.00,,,-99.99,,2013-01-17 11:33:00,
2013-01-17 04:42:00,9.0,4.0,-100.00,WNW,301,3.0,4.0,80,0.00,,,-99.99,,2013-01-17 11:42:00,
2013-01-17 04:52:00,9.0,4.0,-100.00,West,278,3.0,4.0,79,0.00,,,-99.99,,2013-01-17 11:52:00,
2013-01-17 05:02:00,11.0,4.0,-100.00,West,272,4.0,6.0,76,0.00,,,-99.99,,2013-01-17 12:02:00,
2013-01-17 05:12:00,10.0,3.0,-100.00,WNW,282,3.0,6.0,73,0.00,,,-99.99,,2013-01-17 12:12:00,
2013-01-17 05:22:00,5.0,1.0,-100.00,NNE,25,2.0,4.0,84,0.00,,,-99.99,,2013-01-17 12:22:00,
2013-01-17 05:32:00,6.0,2.0,-100.00,SE,130,1.0,3.0,84,0.00,,,-99.99,,2013-01-17 12:32:00,
2013-01-17 05:42:00,7.0,3.0,-100.00,South,185,1.0,4.0,83,0.00,,,-99.99,,2013-01-17 12:42:00,
2013-01-17 05:52:00,6.0,2.0,-100.00,WNW,295,1.0,2.0,82,0.00,,,-99.99,,2013-01-17 12:52:00,
2013-01-17 06:03:00,7.0,2.0,-100.00,West,271,1.0,4.0,79,0.00,,,-99.99,,2013-01-17 13:03:00,
2013-01-17 06:12:00,8.0,3.0,-100.00,West,264,2.0,4.0,80,0.00,,,-99.99,,2013-01-17 13:12:00,
2013-01-17 06:22:00,8.0,2.0,-100.00,SSW,213,0.0,2.0,75,0.00,,,-99.99,,2013-01-17 13:22:00,
2013-01-17 06:33:00,8.0,1.0,-100.00,SE,127,1.0,2.0,76,0.00,,,-99.99,,2013-01-17 13:33:00,
2013-01-17 06:42:00,5.0,0.0,-100.00,ENE,58,1.0,4.0,79,0.00,,,-99.99,,2013-01-17 13:42:00,
2013-01-17 06:52:00,7.0,2.0,-100.00,ENE,62,3.0,6.0,79,0.00,,,-99.99,,2013-01-17 13:52:00,
2013-01-17 07:03:00,6.0,2.0,-100.00,North,8,1.0,2.0,82,0.00,,,-99.99,,2013-01-17 14:03:00,
2013-01-17 07:12:00,7.0,2.0,-100.00,NNW,336,1.0,3.0,82,0.00,,,-99.99,,2013-01-17 14:12:00,
2013-01-17 07:23:00,8.0,4.0,-100.00,WNW,284,1.0,4.0,82,0.00,,,-99.99,,2013-01-17 14:23:00,
2013-01-17 07:33:00,9.0,4.0,-100.00,NW,316,2.0,4.0,81,0.00,,,-99.99,,2013-01-17 14:33:00,
2013-01-17 07:42:00,7.0,3.0,-100.00,WNW,295,3.0,5.0,81,0.00,,,-99.99,,2013-01-17 14:42:00,
2013-01-17 07:53:00,8.0,3.0,-100.00,NW,325,2.0,4.0,81,0.00,,,-99.99,,2013-01-17 14:53:00,
2013-01-17 08:03:00,9.0,5.0,-100.00,NNW,346,3.0,5.0,82,0.00,,,-99.99,,2013-01-17 15:03:00,
2013-01-17 08:12:00,9.0,4.0,-100.00,NNW,333,4.0,5.0,80,0.00,,,-99.99,,2013-01-17 15:12:00,
2013-01-17 08:22:00,10.0,4.0,-100.00,WNW,295,4.0,6.0,78,0.00,,,-99.99,,2013-01-17 15:22:00,
2013-01-17 08:33:00,10.0,4.0,-100.00,NW,304,2.0,4.0,75,0.00,,,-99.99,,2013-01-17 15:33:00,
2013-01-17 08:43:00,11.0,6.0,-100.00,NW,311,2.0,4.0,77,0.00,,,-99.99,,2013-01-17 15:43:00,
2013-01-17 08:52:00,12.0,6.0,-100.00,NNW,346,1.0,4.0,73,0.00,,,-99.99,,2013-01-17 15:52:00,
2013-01-17 09:02:00,14.0,7.0,-100.00,SW,234,1.0,3.0,72,0.00,,,-99.99,,2013-01-17 16:02:00,
2013-01-17 09:12:00,15.0,8.0,-100.00,SSE,168,1.0,3.0,73,0.00,,,-99.99,,2013-01-17 16:12:00,
2013-01-17 09:22:00,15.0,7.0,-100.00,SE,141,1.0,4.0,71,0.00,,,-99.99,,2013-01-17 16:22:00,
2013-01-17 09:33:00,15.0,8.0,-100.00,South,182,2.0,6.0,73,0.00,,,-99.99,,2013-01-17 16:33:00,
2013-01-17 09:43:00,18.0,9.0,-100.00,South,172,1.0,2.0,68,0.00,,,-99.99,,2013-01-17 16:43:00,
2013-01-17 09:52:00,17.0,8.0,-100.00,North,4,1.0,2.0,68,0.00,,,-99.99,,2013-01-17 16:52:00,
2013-01-17 10:03:00,14.0,8.0,-100.00,ENE,71,2.0,4.0,75,0.00,,,-99.99,,2013-01-17 17:03:00,
2013-01-17 10:12:00,14.0,8.0,-100.00,East,85,1.0,4.0,75,0.00,,,-99.99,,2013-01-17 17:12:00,
2013-01-17 10:22:00,19.0,10.0,-100.00,East,89,1.0,2.0,66,0.00,,,-99.99,,2013-01-17 17:22:00,
2013-01-17 10:33:00,17.0,9.0,-100.00,East,100,1.0,3.0,69,0.00,,,-99.99,,2013-01-17 17:33:00,
2013-01-17 10:43:00,15.0,8.0,-100.00,East,88,2.0,4.0,72,0.00,,,-99.99,,2013-01-17 17:43:00,
2013-01-17 10:53:00,16.0,9.0,-100.00,ENE,66,1.0,3.0,73,0.00,,,-99.99,,2013-01-17 17:53:00,
2013-01-17 11:03:00,20.0,9.0,-100.00,East,79,1.0,4.0,62,0.00,,,-99.99,,2013-01-17 18:03:00,
2013-01-17 11:12:00,19.0,10.0,-100.00,ESE,104,1.0,4.0,67,0.00,,,-99.99,,2013-01-17 18:12:00,
2013-01-17 11:22:00,17.0,9.0,-100.00,East,80,2.0,4.0,70,0.00,,,-99.99,,2013-01-17 18:22:00,
2013-01-17 11:33:00,20.0,11.0,-100.00,ESE,109,1.0,4.0,69,0.00,,,-99.99,,2013-01-17 18:33:00,
2013-01-17 11:43:00,21.0,12.0,-100.00,South,185,1.0,3.0,67,0.00,,,-99.99,,2013-01-17 18:43:00,
2013-01-17 11:53:00,26.0,12.0,-100.00,South,186,1.0,2.0,57,0.00,,,-99.99,,2013-01-17 18:53:00,
2013-01-17 12:03:00,25.0,12.0,-100.00,SSW,212,1.0,4.0,56,0.00,,,-99.99,,2013-01-17 19:03:00,
2013-01-17 12:12:00,25.0,12.0,-100.00,SE,141,1.0,4.0,59,0.00,,,-99.99,,2013-01-17 19:12:00,
2013-01-17 12:22:00,23.0,12.0,-100.00,South,181,3.0,5.0,62,0.00,,,-99.99,,2013-01-17 19:22:00,
2013-01-17 12:33:00,25.0,12.0,-100.00,SSW,196,2.0,4.0,58,0.00,,,-99.99,,2013-01-17 19:33:00,
2013-01-17 12:42:00,26.0,13.0,-100.00,South,191,2.0,4.0,57,0.00,,,-99.99,,2013-01-17 19:42:00,
2013-01-17 12:53:00,26.0,11.0,-100.00,SE,127,2.0,4.0,52,0.00,,,-99.99,,2013-01-17 19:53:00,
2013-01-17 13:03:00,26.0,13.0,-100.00,ENE,59,2.0,4.0,58,0.00,,,-99.99,,2013-01-17 20:03:00,
2013-01-17 13:12:00,26.0,13.0,-100.00,ENE,61,1.0,3.0,57,0.00,,,-99.99,,2013-01-17 20:12:00,
2013-01-17 13:23:00,24.0,13.0,-100.00,ENE,75,4.0,7.0,64,0.00,,,-99.99,,2013-01-17 20:23:00,
2013-01-17 13:33:00,23.0,13.0,-100.00,ENE,73,4.0,7.0,64,0.00,,,-99.99,,2013-01-17 20:33:00,
2013-01-17 13:43:00,23.0,13.0,-100.00,ENE,69,3.0,6.0,63,0.00,,,-99.99,,2013-01-17 20:43:00,
2013-01-17 13:53:00,24.0,13.0,-100.00,ENE,73,4.0,5.0,62,0.00,,,-99.99,,2013-01-17 20:53:00,
2013-01-17 14:03:00,24.0,13.0,-100.00,East,89,3.0,5.0,63,0.00,,,-99.99,,2013-01-17 21:03:00,
2013-01-17 14:12:00,24.0,13.0,-100.00,East,86,4.0,5.0,63,0.00,,,-99.99,,2013-01-17 21:12:00,
2013-01-17 14:23:00,23.0,15.0,-100.00,ESE,106,4.0,7.0,70,0.00,,,-99.99,,2013-01-17 21:23:00,
2013-01-17 14:33:00,23.0,14.0,-100.00,SE,145,5.0,7.0,67,0.00,,,-99.99,,2013-01-17 21:33:00,
2013-01-17 14:42:00,24.0,12.0,-100.00,SSE,154,4.0,6.0,59,0.00,,,-99.99,,2013-01-17 21:42:00,
2013-01-17 14:52:00,24.0,12.0,-100.00,South,174,4.0,5.0,61,0.00,,,-99.99,,2013-01-17 21:52:00,
2013-01-17 15:03:00,25.0,12.0,-100.00,South,188,2.0,4.0,57,0.00,,,-99.99,,2013-01-17 22:03:00,
2013-01-17 15:12:00,25.0,12.0,-100.00,South,186,2.0,4.0,57,0.00,,,-99.99,,2013-01-17 22:12:00,
2013-01-17 15:22:00,25.0,13.0,-100.00,SSW,195,3.0,4.0,59,0.00,,,-99.99,,2013-01-17 22:22:00,
2013-01-17 15:33:00,25.0,13.0,-100.00,South,191,2.0,5.0,59,0.00,,,-99.99,,2013-01-17 22:33:00,
2013-01-17 15:42:00,25.0,13.0,-100.00,South,181,3.0,5.0,59,0.00,,,-99.99,,2013-01-17 22:42:00,
2013-01-17 15:52:00,25.0,13.0,-100.00,SE,136,2.0,4.0,61,0.00,,,-99.99,,2013-01-17 22:52:00,
2013-01-17 16:03:00,25.0,13.0,-100.00,SE,143,3.0,6.0,59,0.00,,,-99.99,,2013-01-17 23:03:00,
2013-01-17 16:12:00,24.0,13.0,-100.00,SSE,147,3.0,6.0,61,0.00,,,-99.99,,2013-01-17 23:12:00,
2013-01-17 16:22:00,24.0,12.0,-100.00,South,172,3.0,6.0,61,0.00,,,-99.99,,2013-01-17 23:22:00,
2013-01-17 16:33:00,23.0,13.0,-100.00,South,185,4.0,6.0,64,0.00,,,-99.99,,2013-01-17 23:33:00,
2013-01-17 16:42:00,23.0,11.0,-100.00,South,176,2.0,4.0,62,0.00,,,-99.99,,2013-01-17 23:42:00,
2013-01-17 16:52:00,21.0,10.0,-100.00,SSE,148,4.0,6.0,62,0.00,,,-99.99,,2013-01-17 23:52:00,
2013-01-17 17:02:00,20.0,10.0,-100.00,SSE,167,5.0,7.0,63,0.00,,,-99.99,,2013-01-18 00:02:00,
2013-01-17 17:12:00,20.0,9.0,-100.00,South,176,5.0,6.0,62,0.00,,,-99.99,,2013-01-18 00:12:00,
2013-01-17 17:23:00,20.0,9.0,-100.00,South,179,4.0,6.0,61,0.00,,,-99.99,,2013-01-18 00:23:00,
2013-01-17 17:32:00,20.0,10.0,-100.00,SSW,196,4.0,6.0,64,0.00,,,-99.99,,2013-01-18 00:32:00,
2013-01-17 17:42:00,21.0,10.0,-100.00,SSW,212,4.0,7.0,62,0.00,,,-99.99,,2013-01-18 00:42:00,
2013-01-17 17:52:00,19.0,9.0,-100.00,WSW,240,3.0,6.0,67,0.00,,,-99.99,,2013-01-18 00:52:00,
2013-01-17 18:03:00,22.0,9.0,-100.00,SW,217,6.0,7.0,59,0.00,,,-99.99,,2013-01-18 01:03:00,
2013-01-17 18:12:00,21.0,8.0,-100.00,SW,220,6.0,7.0,57,0.00,,,-99.99,,2013-01-18 01:12:00,
2013-01-17 18:22:00,20.0,9.0,-100.00,WSW,257,3.0,7.0,62,0.00,,,-99.99,,2013-01-18 01:22:00,
2013-01-17 18:33:00,18.0,9.0,-100.00,West,271,2.0,6.0,68,0.00,,,-99.99,,2013-01-18 01:33:00,
2013-01-17 18:42:00,18.0,8.0,-100.00,West,281,1.0,6.0,64,0.00,,,-99.99,,2013-01-18 01:42:00,
2013-01-17 18:52:00,17.0,9.0,-100.00,ESE,123,2.0,4.0,69,0.00,,,-99.99,,2013-01-18 01:52:00,
2013-01-17 19:02:00,18.0,9.0,-100.00,ESE,110,1.0,4.0,69,0.00,,,-99.99,,2013-01-18 02:02:00,
2013-01-17 19:12:00,18.0,9.0,-100.00,SSE,148,1.0,4.0,68,0.00,,,-99.99,,2013-01-18 02:12:00,
2013-01-17 19:22:00,17.0,8.0,-100.00,West,263,1.0,6.0,66,0.00,,,-99.99,,2013-01-18 02:22:00,
2013-01-17 19:32:00,15.0,8.0,-100.00,SW,220,2.0,8.0,71,0.00,,,-99.99,,2013-01-18 02:32:00,
2013-01-17 19:42:00,19.0,9.0,-100.00,WSW,244,4.0,9.0,67,0.00,,,-99.99,,2013-01-18 02:42:00,
2013-01-17 19:52:00,17.0,8.0,-100.00,WSW,248,2.0,4.0,68,0.00,,,-99.99,,2013-01-18 02:52:00,
2013-01-17 20:02:00,17.0,9.0,-100.00,WSW,248,3.0,6.0,71,0.00,,,-99.99,,2013-01-18 03:02:00,
2013-01-17 20:12:00,18.0,10.0,-100.00,West,270,1.0,4.0,70,0.00,,,-99.99,,2013-01-18 03:12:00,
2013-01-17 20:22:00,17.0,9.0,-100.00,NNW,333,1.0,3.0,70,0.00,,,-99.99,,2013-01-18 03:22:00,
2013-01-17 20:33:00,17.0,8.0,-100.00,ENE,58,2.0,6.0,68,0.00,,,-99.99,,2013-01-18 03:33:00,
2013-01-17 20:42:00,15.0,8.0,-100.00,East,99,2.0,6.0,73,0.00,,,-99.99,,2013-01-18 03:42:00,
2013-01-17 20:52:00,18.0,11.0,-100.00,ENE,62,1.0,4.0,75,0.00,,,-99.99,,2013-01-18 03:52:00,
2013-01-17 21:02:00,18.0,11.0,-100.00,South,188,2.0,6.0,72,0.00,,,-99.99,,2013-01-18 04:02:00,
2013-01-17 21:12:00,18.0,10.0,-100.00,SW,222,2.0,6.0,72,0.00,,,-99.99,,2013-01-18 04:12:00,
2013-01-17 21:22:00,18.0,10.0,-100.00,SW,233,1.0,4.0,71,0.00,,,-99.99,,2013-01-18 04:22:00,
2013-01-17 21:32:00,15.0,8.0,-100.00,West,272,2.0,6.0,73,0.00,,,-99.99,,2013-01-18 04:32:00,
2013-01-17 21:42:00,18.0,8.0,-100.00,WSW,251,3.0,6.0,65,0.00,,,-99.99,,2013-01-18 04:42:00,
2013-01-17 21:52:00,25.0,5.0,-100.00,SW,217,5.0,8.0,43,0.00,,,-99.99,,2013-01-18 04:52:00,
2013-01-17 22:03:00,28.0,4.0,-100.00,South,188,10.0,12.0,35,0.00,,,-99.99,,2013-01-18 05:03:00,
2013-01-17 22:12:00,29.0,4.0,-100.00,SSW,192,11.0,12.0,34,0.00,,,-99.99,,2013-01-18 05:12:00,
2013-01-17 22:22:00,19.0,6.0,-100.00,East,92,4.0,8.0,56,0.00,,,-99.99,,2013-01-18 05:22:00,
2013-01-17 22:33:00,24.0,5.0,-100.00,East,99,2.0,7.0,44,0.00,,,-99.99,,2013-01-18 05:33:00,
2013-01-17 22:42:00,26.0,4.0,-100.00,SE,143,3.0,9.0,40,0.00,,,-99.99,,2013-01-18 05:42:00,
2013-01-17 22:52:00,27.0,2.0,-100.00,South,169,3.0,7.0,35,0.00,,,-99.99,,2013-01-18 05:52:00,
2013-01-17 23:02:00,32.0,2.0,-100.00,SSW,195,7.0,21.0,28,0.00,,,-99.99,,2013-01-18 06:02:00,
2013-01-17 23:12:00,33.0,2.0,-100.00,WSW,250,11.0,22.0,26,0.00,,,-99.99,,2013-01-18 06:12:00,
2013-01-17 23:22:00,34.0,3.0,-100.00,WSW,250,14.0,22.0,26,0.00,,,-99.99,,2013-01-18 06:22:00,
2013-01-17 23:32:00,34.0,2.0,-100.00,WSW,258,13.0,21.0,25,0.00,,,-99.99,,2013-01-18 06:32:00,
2013-01-17 23:43:00,33.0,3.0,-100.00,WSW,257,10.0,15.0,27,0.00,,,-99.99,,2013-01-18 06:43:00,
2013-01-17 23:52:00,36.0,1.0,-100.00,West,267,11.0,17.0,22,0.00,,,-99.99,,2013-01-18 06:52:00,